Zurück zum Katalog

DMSP 5D-2 F13 DEB

AktivSSO
NORAD 40491·DEBRIS·🇺🇸 United States

Gestartet Mar 24, 1995 von Vandenberg Space Force Base

Loading…

Nächste Überflüge (nächste 24 Stunden)

TLE

AktuellSource: Space-Track

Epoche: Sep 14, 2026, 03:01 UTC

1 40491U 95015CE  26257.12622510  .00007202  00000-0  14015-2 0  9993
2 40491  98.5584 319.1936 0018709 198.6822 161.3694 14.63288026602055

Verfolge DMSP 5D-2 F13 DEB in Echtzeit mit AllMySat

Download on the App Store